Time,TemperatureF,DewpointF,PressureIn,WindDirection,WindDirectionDegrees,WindSpeedMPH,WindSpeedGustMPH,Humidity,HourlyPrecipIn,Conditions,Clouds,dailyrainin,SoftwareType,DateUTC
2013-05-18 00:00:00,63.9,45.4,30.09,ESE,117,3.0,4.0,51,0.00,,,0.00,Wunderground v.1.15,2013-05-18 04:00:00,
2013-05-18 00:05:00,63.9,45.4,30.09,South,170,4.0,4.0,51,0.00,,,0.00,Wunderground v.1.15,2013-05-18 04:05:00,
2013-05-18 00:10:00,63.8,45.3,30.09,South,181,3.0,3.0,51,0.00,,,0.00,Wunderground v.1.15,2013-05-18 04:10:00,
2013-05-18 00:15:00,63.8,44.8,30.09,SSE,162,4.0,4.0,50,0.00,,,0.00,Wunderground v.1.15,2013-05-18 04:15:00,
2013-05-18 00:20:00,63.8,44.8,30.08,SW,224,5.0,11.0,50,0.00,,,0.00,Wunderground v.1.15,2013-05-18 04:20:00,
2013-05-18 00:30:00,63.5,45.0,30.08,SSW,201,4.0,6.0,51,0.00,,,0.00,Wunderground v.1.15,2013-05-18 04:30:00,
2013-05-18 00:35:00,63.5,45.0,30.08,SSW,207,4.0,7.0,51,0.00,,,0.00,Wunderground v.1.15,2013-05-18 04:35:00,
2013-05-18 00:45:00,63.3,44.9,30.08,South,191,4.0,9.0,51,0.00,,,0.00,Wunderground v.1.15,2013-05-18 04:45:00,
2013-05-18 00:50:00,63.2,44.8,30.08,SW,229,4.0,4.0,51,0.00,,,0.00,Wunderground v.1.15,2013-05-18 04:50:00,
2013-05-18 00:55:00,63.1,45.2,30.08,SSW,203,4.0,8.0,52,0.00,,,0.00,Wunderground v.1.15,2013-05-18 04:55:00,
2013-05-18 01:00:00,63.0,44.6,30.09,SSW,195,5.0,5.0,51,0.00,,,0.00,Wunderground v.1.15,2013-05-18 05:00:00,
2013-05-18 01:05:00,62.9,45.0,30.08,WSW,252,5.0,7.0,52,0.00,,,0.00,Wunderground v.1.15,2013-05-18 05:05:00,
2013-05-18 01:10:00,62.8,44.9,30.08,WSW,240,5.0,9.0,52,0.00,,,0.00,Wunderground v.1.15,2013-05-18 05:10:00,
2013-05-18 01:15:00,62.7,44.8,30.08,SW,214,5.0,9.0,52,0.00,,,0.00,Wunderground v.1.15,2013-05-18 05:15:00,
2013-05-18 01:20:00,62.6,44.2,30.08,WSW,240,6.0,10.0,51,0.00,,,0.00,Wunderground v.1.15,2013-05-18 05:20:00,
2013-05-18 01:25:00,62.6,44.2,30.08,SW,226,7.0,10.0,51,0.00,,,0.00,Wunderground v.1.15,2013-05-18 05:25:00,
2013-05-18 01:30:00,62.5,44.1,30.08,SW,214,7.0,7.0,51,0.00,,,0.00,Wunderground v.1.15,2013-05-18 05:30:00,
2013-05-18 01:40:00,62.2,44.3,30.08,SE,132,5.0,5.0,52,0.00,,,0.00,Wunderground v.1.15,2013-05-18 05:40:00,
2013-05-18 01:50:00,62.0,44.2,30.07,SSW,207,4.0,4.0,52,0.00,,,0.00,Wunderground v.1.15,2013-05-18 05:50:00,
2013-05-18 01:55:00,61.9,43.6,30.07,WSW,258,4.0,5.0,51,0.00,,,0.00,Wunderground v.1.15,2013-05-18 05:55:00,
2013-05-18 02:00:00,61.8,43.0,30.07,SW,217,5.0,9.0,50,0.00,,,0.00,Wunderground v.1.15,2013-05-18 06:00:00,
2013-05-18 02:05:00,61.7,42.9,30.07,SSE,162,5.0,9.0,50,0.00,,,0.00,Wunderground v.1.15,2013-05-18 06:05:00,
2013-05-18 02:10:00,61.5,43.2,30.07,SE,139,4.0,4.0,51,0.00,,,0.00,Wunderground v.1.15,2013-05-18 06:10:00,
2013-05-18 02:15:00,61.4,43.1,30.07,SE,142,4.0,9.0,51,0.00,,,0.00,Wunderground v.1.15,2013-05-18 06:15:00,
2013-05-18 02:20:00,61.3,43.0,30.07,SSE,158,5.0,5.0,51,0.00,,,0.00,Wunderground v.1.15,2013-05-18 06:20:00,
2013-05-18 02:25:00,61.2,42.9,30.07,SE,134,5.0,9.0,51,0.00,,,0.00,Wunderground v.1.15,2013-05-18 06:25:00,
2013-05-18 02:30:00,61.1,42.8,30.07,ESE,120,5.0,5.0,51,0.00,,,0.00,Wunderground v.1.15,2013-05-18 06:30:00,
2013-05-18 02:35:00,60.9,42.6,30.07,SSE,166,4.0,9.0,51,0.00,,,0.00,Wunderground v.1.15,2013-05-18 06:35:00,
2013-05-18 02:45:00,60.5,42.8,30.07,SE,139,3.0,9.0,52,0.00,,,0.00,Wunderground v.1.15,2013-05-18 06:45:00,
2013-05-18 02:55:00,60.2,42.0,30.07,SE,141,5.0,9.0,51,0.00,,,0.00,Wunderground v.1.15,2013-05-18 06:55:00,
2013-05-18 03:00:00,60.1,41.9,30.07,SSE,162,5.0,5.0,51,0.00,,,0.00,Wunderground v.1.15,2013-05-18 07:00:00,
2013-05-18 03:10:00,59.7,41.5,30.07,SE,131,5.0,5.0,51,0.00,,,0.00,Wunderground v.1.15,2013-05-18 07:10:00,
2013-05-18 03:15:00,59.5,41.3,30.07,SSE,153,4.0,5.0,51,0.00,,,0.00,Wunderground v.1.15,2013-05-18 07:15:00,
2013-05-18 03:20:00,59.2,41.6,30.07,SSE,155,3.0,3.0,52,0.00,,,0.00,Wunderground v.1.15,2013-05-18 07:20:00,
2013-05-18 03:25:00,59.1,41.5,30.07,SW,218,3.0,4.0,52,0.00,,,0.00,Wunderground v.1.15,2013-05-18 07:25:00,
2013-05-18 03:30:00,59.0,41.4,30.07,SSW,194,4.0,5.0,52,0.00,,,0.00,Wunderground v.1.15,2013-05-18 07:30:00,
2013-05-18 03:35:00,58.8,41.2,30.07,SW,221,5.0,6.0,52,0.00,,,0.00,Wunderground v.1.15,2013-05-18 07:35:00,
2013-05-18 03:45:00,58.7,41.1,30.07,South,184,4.0,6.0,52,0.00,,,0.00,Wunderground v.1.15,2013-05-18 07:45:00,
2013-05-18 03:50:00,58.6,41.0,30.08,SSE,162,4.0,4.0,52,0.00,,,0.00,Wunderground v.1.15,2013-05-18 07:50:00,
2013-05-18 03:55:00,58.5,40.9,30.08,SE,127,4.0,9.0,52,0.00,,,0.00,Wunderground v.1.15,2013-05-18 07:55:00,
2013-05-18 04:00:00,58.4,40.8,30.08,SE,139,4.0,9.0,52,0.00,,,0.00,Wunderground v.1.15,2013-05-18 08:00:00,
2013-05-18 04:05:00,58.4,40.8,30.08,SSE,159,4.0,9.0,52,0.00,,,0.00,Wunderground v.1.15,2013-05-18 08:05:00,
2013-05-18 04:10:00,58.3,41.2,30.08,SSE,165,4.0,9.0,53,0.00,,,0.00,Wunderground v.1.15,2013-05-18 08:10:00,
2013-05-18 04:15:00,58.3,40.7,30.08,SE,128,4.0,9.0,52,0.00,,,0.00,Wunderground v.1.15,2013-05-18 08:15:00,
2013-05-18 04:20:00,58.2,41.1,30.09,SE,143,4.0,4.0,53,0.00,,,0.00,Wunderground v.1.15,2013-05-18 08:20:00,
2013-05-18 04:30:00,58.0,41.0,30.09,SSE,150,3.0,9.0,53,0.00,,,0.00,Wunderground v.1.15,2013-05-18 08:30:00,
2013-05-18 04:35:00,58.0,41.0,30.09,SSE,153,3.0,9.0,53,0.00,,,0.00,Wunderground v.1.15,2013-05-18 08:35:00,
2013-05-18 04:40:00,57.9,40.9,30.09,SE,142,3.0,9.0,53,0.00,,,0.00,Wunderground v.1.15,2013-05-18 08:40:00,
2013-05-18 04:50:00,57.8,40.8,30.09,SSE,149,2.0,9.0,53,0.00,,,0.00,Wunderground v.1.15,2013-05-18 08:50:00,
2013-05-18 04:55:00,57.8,40.8,30.09,SSE,148,2.0,9.0,53,0.00,,,0.00,Wunderground v.1.15,2013-05-18 08:55:00,
2013-05-18 05:05:00,57.7,40.7,30.09,SE,131,3.0,9.0,53,0.00,,,0.00,Wunderground v.1.15,2013-05-18 09:05:00,
2013-05-18 05:10:00,57.6,40.6,30.09,SE,134,3.0,9.0,53,0.00,,,0.00,Wunderground v.1.15,2013-05-18 09:10:00,
2013-05-18 05:15:00,57.6,40.6,30.09,SE,127,3.0,9.0,53,0.00,,,0.00,Wunderground v.1.15,2013-05-18 09:15:00,
2013-05-18 05:20:00,57.6,40.6,30.09,SE,131,3.0,3.0,53,0.00,,,0.00,Wunderground v.1.15,2013-05-18 09:20:00,
2013-05-18 05:25:00,57.6,41.1,30.09,SE,131,3.0,5.0,54,0.00,,,0.00,Wunderground v.1.15,2013-05-18 09:25:00,
2013-05-18 05:35:00,56.5,39.6,30.09,ESE,121,3.0,9.0,53,0.00,,,0.00,Wunderground v.1.15,2013-05-18 09:35:00,
2013-05-18 05:40:00,-999.9,-99.9,30.10,North,32767,-999.0,9.0,255,-99.99,,,0.00,Wunderground v.1.15,2013-05-18 09:40:00,
2013-05-18 05:45:00,-999.9,-99.9,30.10,North,32767,-999.0,9.0,255,-99.99,,,0.00,Wunderground v.1.15,2013-05-18 09:45:00,
2013-05-18 05:50:00,-999.9,-99.9,30.10,North,32767,-999.0,9.0,255,-99.99,,,0.00,Wunderground v.1.15,2013-05-18 09:50:00,
2013-05-18 06:00:00,-999.9,-99.9,30.10,North,32767,-999.0,9.0,255,-99.99,,,0.00,Wunderground v.1.15,2013-05-18 10:00:00,
2013-05-18 06:10:00,-999.9,-99.9,30.10,North,32767,-999.0,9.0,255,-99.99,,,0.00,Wunderground v.1.15,2013-05-18 10:10:00,
2013-05-18 06:15:00,-999.9,-99.9,30.11,North,32767,-999.0,9.0,255,-99.99,,,0.00,Wunderground v.1.15,2013-05-18 10:15:00,
2013-05-18 06:20:00,-999.9,-99.9,30.11,North,32767,-999.0,9.0,255,-99.99,,,0.00,Wunderground v.1.15,2013-05-18 10:20:00,
2013-05-18 06:25:00,-999.9,-99.9,30.11,North,32767,-999.0,9.0,255,-99.99,,,0.00,Wunderground v.1.15,2013-05-18 10:25:00,
2013-05-18 06:30:00,-999.9,-99.9,30.11,North,32767,-999.0,9.0,255,-99.99,,,0.00,Wunderground v.1.15,2013-05-18 10:30:00,
2013-05-18 06:35:00,-999.9,-99.9,30.11,North,32767,-999.0,9.0,255,-99.99,,,0.00,Wunderground v.1.15,2013-05-18 10:35:00,
2013-05-18 06:45:00,-999.9,-99.9,30.11,North,32767,-999.0,9.0,255,-99.99,,,0.00,Wunderground v.1.15,2013-05-18 10:45:00,
2013-05-18 06:50:00,-999.9,-99.9,30.11,North,32767,-999.0,9.0,255,-99.99,,,0.00,Wunderground v.1.15,2013-05-18 10:50:00,
2013-05-18 06:55:00,-999.9,-99.9,30.11,North,32767,-999.0,9.0,255,-99.99,,,0.00,Wunderground v.1.15,2013-05-18 10:55:00,
2013-05-18 07:05:00,-999.9,-99.9,30.12,North,32767,-999.0,0.0,255,-99.99,,,0.00,Wunderground v.1.15,2013-05-18 11:05:00,
2013-05-18 07:10:00,-999.9,-99.9,30.12,North,32767,-999.0,0.0,255,-99.99,,,0.00,Wunderground v.1.15,2013-05-18 11:10:00,
2013-05-18 07:20:00,-999.9,-99.9,30.12,North,32767,-999.0,0.0,255,-99.99,,,0.00,Wunderground v.1.15,2013-05-18 11:20:00,
2013-05-18 07:25:00,-999.9,-99.9,30.12,North,32767,-999.0,0.0,255,-99.99,,,0.00,Wunderground v.1.15,2013-05-18 11:25:00,
2013-05-18 07:30:00,-999.9,-99.9,30.12,North,32767,-999.0,0.0,255,-99.99,,,0.00,Wunderground v.1.15,2013-05-18 11:30:00,
2013-05-18 07:35:00,-999.9,-99.9,30.12,North,32767,-999.0,0.0,255,-99.99,,,0.00,Wunderground v.1.15,2013-05-18 11:35:00,
2013-05-18 07:40:00,-999.9,-99.9,30.12,North,32767,-999.0,0.0,255,-99.99,,,0.00,Wunderground v.1.15,2013-05-18 11:40:00,
2013-05-18 07:50:00,-999.9,-99.9,30.13,North,32767,-999.0,0.0,255,-99.99,,,0.00,Wunderground v.1.15,2013-05-18 11:50:00,
2013-05-18 07:55:00,-999.9,-99.9,30.13,North,32767,-999.0,0.0,255,-99.99,,,0.00,Wunderground v.1.15,2013-05-18 11:55:00,
2013-05-18 08:05:00,59.3,43.6,30.12,SE,134,5.0,5.0,56,0.00,,,0.00,Wunderground v.1.15,2013-05-18 12:05:00,
2013-05-18 08:10:00,59.3,43.6,30.12,SSE,156,4.0,4.0,56,0.00,,,0.00,Wunderground v.1.15,2013-05-18 12:10:00,
2013-05-18 09:40:00,62.8,47.8,30.11,East,101,1.0,1.0,58,0.00,,,0.00,Wunderground v.1.15,2013-05-18 13:40:00,
2013-05-18 09:45:00,62.9,47.4,30.11,WSW,238,1.0,7.0,57,0.00,,,0.00,Wunderground v.1.15,2013-05-18 13:45:00,
2013-05-18 09:50:00,62.8,47.3,30.11,WSW,246,3.0,6.0,57,0.00,,,0.00,Wunderground v.1.15,2013-05-18 13:50:00,
2013-05-18 10:00:00,63.0,48.0,30.10,West,262,4.0,4.0,58,0.00,,,0.00,Wunderground v.1.15,2013-05-18 14:00:00,
2013-05-18 10:10:00,64.0,48.5,30.10,WSW,246,3.0,6.0,57,0.00,,,0.00,Wunderground v.1.15,2013-05-18 14:10:00,
2013-05-18 10:15:00,64.4,49.3,30.10,SW,219,3.0,6.0,58,0.00,,,0.00,Wunderground v.1.15,2013-05-18 14:15:00,
2013-05-18 10:25:00,65.8,50.1,30.10,SSE,164,2.0,3.0,57,0.00,,,0.00,Wunderground v.1.15,2013-05-18 14:25:00,
2013-05-18 10:30:00,66.0,50.8,30.10,South,183,2.0,2.0,58,0.00,,,0.00,Wunderground v.1.15,2013-05-18 14:30:00,
2013-05-18 10:35:00,66.6,51.8,30.11,WSW,242,2.0,4.0,59,0.00,,,0.00,Wunderground v.1.15,2013-05-18 14:35:00,
2013-05-18 10:55:00,67.5,53.1,30.10,WNW,285,3.0,9.0,60,0.00,,,0.00,Wunderground v.1.15,2013-05-18 14:55:00,
2013-05-18 11:00:00,67.7,53.8,30.10,West,262,3.0,9.0,61,0.00,,,0.00,Wunderground v.1.15,2013-05-18 15:00:00,
2013-05-18 11:10:00,68.1,54.1,30.09,WSW,250,5.0,9.0,61,0.00,,,0.00,Wunderground v.1.15,2013-05-18 15:10:00,
2013-05-18 11:15:00,68.3,54.3,30.09,WSW,250,6.0,9.0,61,0.00,,,0.00,Wunderground v.1.15,2013-05-18 15:15:00,
2013-05-18 11:20:00,68.5,54.5,30.09,SSW,201,5.0,5.0,61,0.00,,,0.00,Wunderground v.1.15,2013-05-18 15:20:00,
2013-05-18 11:25:00,69.1,56.4,30.10,SW,234,4.0,9.0,64,0.00,,,0.00,Wunderground v.1.15,2013-05-18 15:25:00,
2013-05-18 11:30:00,69.2,55.6,30.09,WSW,239,4.0,9.0,62,0.00,,,0.00,Wunderground v.1.15,2013-05-18 15:30:00,
2013-05-18 11:40:00,70.5,56.9,30.09,SSW,204,6.0,6.0,62,0.00,,,0.00,Wunderground v.1.15,2013-05-18 15:40:00,
2013-05-18 11:45:00,70.9,56.3,30.09,SSW,200,4.0,9.0,60,0.00,,,0.00,Wunderground v.1.15,2013-05-18 15:45:00,
2013-05-18 11:50:00,71.2,57.1,30.09,SSW,200,4.0,9.0,61,0.00,,,0.00,Wunderground v.1.15,2013-05-18 15:50:00,
2013-05-18 12:00:00,72.0,57.4,30.09,WSW,248,6.0,12.0,60,0.00,,,0.00,Wunderground v.1.15,2013-05-18 16:00:00,
2013-05-18 12:10:00,72.2,58.5,30.09,WSW,245,6.0,6.0,62,0.00,,,0.00,Wunderground v.1.15,2013-05-18 16:10:00,
2013-05-18 12:15:00,72.2,58.0,30.09,WSW,239,6.0,7.0,61,0.00,,,0.00,Wunderground v.1.15,2013-05-18 16:15:00,
2013-05-18 12:20:00,72.1,58.4,30.09,SSW,210,6.0,6.0,62,0.00,,,0.00,Wunderground v.1.15,2013-05-18 16:20:00,
2013-05-18 12:25:00,72.1,57.9,30.09,WSW,243,5.0,6.0,61,0.00,,,0.00,Wunderground v.1.15,2013-05-18 16:25:00,
2013-05-18 12:30:00,72.1,58.4,30.09,SSW,212,6.0,6.0,62,0.00,,,0.00,Wunderground v.1.15,2013-05-18 16:30:00,
2013-05-18 12:35:00,72.4,58.6,30.09,SSE,153,5.0,7.0,62,0.00,,,0.00,Wunderground v.1.15,2013-05-18 16:35:00,
2013-05-18 12:40:00,72.7,58.5,30.09,WSW,245,5.0,9.0,61,0.00,,,0.00,Wunderground v.1.15,2013-05-18 16:40:00,
2013-05-18 12:50:00,73.0,58.8,30.08,South,170,6.0,6.0,61,0.00,,,0.00,Wunderground v.1.15,2013-05-18 16:50:00,
2013-05-18 12:55:00,72.9,58.7,30.08,WSW,249,7.0,7.0,61,0.00,,,0.00,Wunderground v.1.15,2013-05-18 16:55:00,
2013-05-18 13:05:00,73.6,58.9,30.08,WSW,250,7.0,9.0,60,0.00,,,0.00,Wunderground v.1.15,2013-05-18 17:05:00,
2013-05-18 13:10:00,73.7,58.9,30.08,SW,232,6.0,6.0,60,0.00,,,0.00,Wunderground v.1.15,2013-05-18 17:10:00,
2013-05-18 13:15:00,74.5,59.2,30.07,South,188,5.0,9.0,59,0.00,,,0.00,Wunderground v.1.15,2013-05-18 17:15:00,
2013-05-18 13:25:00,74.9,59.6,30.07,WSW,245,5.0,9.0,59,0.00,,,0.00,Wunderground v.1.15,2013-05-18 17:25:00,
2013-05-18 13:30:00,75.0,59.2,30.07,WSW,243,6.0,12.0,58,0.00,,,0.00,Wunderground v.1.15,2013-05-18 17:30:00,
2013-05-18 13:35:00,74.8,59.0,30.07,WSW,248,8.0,12.0,58,0.00,,,0.00,Wunderground v.1.15,2013-05-18 17:35:00,
2013-05-18 13:40:00,75.1,58.8,30.07,WSW,256,9.0,9.0,57,0.00,,,0.00,Wunderground v.1.15,2013-05-18 17:40:00,
2013-05-18 13:45:00,75.2,58.4,30.07,WSW,243,8.0,9.0,56,0.00,,,0.00,Wunderground v.1.15,2013-05-18 17:45:00,
2013-05-18 13:55:00,74.6,58.4,30.06,SW,229,7.0,9.0,57,0.00,,,0.00,Wunderground v.1.15,2013-05-18 17:55:00,
2013-05-18 14:00:00,74.8,59.0,30.06,SW,236,6.0,11.0,58,0.00,,,0.00,Wunderground v.1.15,2013-05-18 18:00:00,
2013-05-18 14:10:00,75.2,58.4,30.06,WSW,238,7.0,10.0,56,0.00,,,0.00,Wunderground v.1.15,2013-05-18 18:10:00,
2013-05-18 14:15:00,75.5,58.7,30.06,WSW,245,8.0,11.0,56,0.00,,,0.00,Wunderground v.1.15,2013-05-18 18:15:00,
2013-05-18 14:20:00,75.7,57.9,30.06,SW,225,8.0,8.0,54,0.00,,,0.00,Wunderground v.1.15,2013-05-18 18:20:00,
2013-05-18 14:30:00,76.1,58.2,30.05,WSW,240,5.0,9.0,54,0.00,,,0.00,Wunderground v.1.15,2013-05-18 18:30:00,
2013-05-18 14:35:00,75.5,57.7,30.05,SSW,201,7.0,15.0,54,0.00,,,0.00,Wunderground v.1.15,2013-05-18 18:35:00,
2013-05-18 14:40:00,75.9,58.1,30.05,South,183,6.0,6.0,54,0.00,,,0.00,Wunderground v.1.15,2013-05-18 18:40:00,
2013-05-18 14:45:00,75.9,58.1,30.05,SSW,212,4.0,10.0,54,0.00,,,0.00,Wunderground v.1.15,2013-05-18 18:45:00,
2013-05-18 14:50:00,75.9,58.1,30.04,SW,227,6.0,15.0,54,0.00,,,0.00,Wunderground v.1.15,2013-05-18 18:50:00,
2013-05-18 14:55:00,76.3,58.9,30.05,WSW,246,6.0,15.0,55,0.00,,,0.00,Wunderground v.1.15,2013-05-18 18:55:00,
2013-05-18 15:00:00,76.5,58.6,30.04,SW,236,5.0,5.0,54,0.00,,,0.00,Wunderground v.1.15,2013-05-18 19:00:00,
2013-05-18 15:05:00,77.2,58.7,30.04,SSW,208,5.0,15.0,53,0.00,,,0.00,Wunderground v.1.15,2013-05-18 19:05:00,
2013-05-18 15:15:00,76.4,58.0,30.04,WSW,240,6.0,15.0,53,0.00,,,0.00,Wunderground v.1.15,2013-05-18 19:15:00,
2013-05-18 15:20:00,76.4,58.0,30.04,WSW,255,8.0,8.0,53,0.00,,,0.00,Wunderground v.1.15,2013-05-18 19:20:00,
2013-05-18 15:25:00,76.1,58.2,30.04,WSW,248,10.0,10.0,54,0.00,,,0.00,Wunderground v.1.15,2013-05-18 19:25:00,
2013-05-18 15:30:00,76.3,58.9,30.04,WSW,250,8.0,15.0,55,0.00,,,0.00,Wunderground v.1.15,2013-05-18 19:30:00,
2013-05-18 15:35:00,76.5,58.1,30.04,WSW,250,8.0,15.0,53,0.00,,,0.00,Wunderground v.1.15,2013-05-18 19:35:00,
2013-05-18 15:40:00,76.4,58.0,30.04,SW,233,9.0,9.0,53,0.00,,,0.00,Wunderground v.1.15,2013-05-18 19:40:00,
2013-05-18 15:45:00,76.6,58.7,30.04,SW,217,6.0,15.0,54,0.00,,,0.00,Wunderground v.1.15,2013-05-18 19:45:00,
2013-05-18 15:50:00,76.7,58.8,30.03,WSW,250,5.0,5.0,54,0.00,,,0.00,Wunderground v.1.15,2013-05-18 19:50:00,
2013-05-18 15:55:00,77.0,58.6,30.03,WSW,239,7.0,7.0,53,0.00,,,0.00,Wunderground v.1.15,2013-05-18 19:55:00,
2013-05-18 16:00:00,77.5,59.0,30.03,SSE,150,7.0,7.0,53,0.00,,,0.00,Wunderground v.1.15,2013-05-18 20:00:00,
2013-05-18 16:10:00,77.3,59.4,30.03,SW,223,8.0,8.0,54,0.00,,,0.00,Wunderground v.1.15,2013-05-18 20:10:00,
2013-05-18 16:15:00,77.3,58.3,30.03,WSW,245,8.0,9.0,52,0.00,,,0.00,Wunderground v.1.15,2013-05-18 20:15:00,
2013-05-18 16:20:00,77.2,59.3,30.03,SSW,207,6.0,6.0,54,0.00,,,0.00,Wunderground v.1.15,2013-05-18 20:20:00,
2013-05-18 16:25:00,77.4,60.0,30.03,SSW,208,5.0,6.0,55,0.00,,,0.00,Wunderground v.1.15,2013-05-18 20:25:00,
2013-05-18 16:30:00,77.2,58.7,30.03,SW,214,5.0,5.0,53,0.00,,,0.00,Wunderground v.1.15,2013-05-18 20:30:00,
2013-05-18 16:35:00,76.9,58.5,30.03,WSW,242,6.0,6.0,53,0.00,,,0.00,Wunderground v.1.15,2013-05-18 20:35:00,
2013-05-18 16:40:00,76.6,58.7,30.03,WSW,257,6.0,6.0,54,0.00,,,0.00,Wunderground v.1.15,2013-05-18 20:40:00,
2013-05-18 16:45:00,76.7,59.3,30.02,West,268,5.0,14.0,55,0.00,,,0.00,Wunderground v.1.15,2013-05-18 20:45:00,
2013-05-18 16:50:00,76.7,59.3,30.03,WSW,252,4.0,4.0,55,0.00,,,0.00,Wunderground v.1.15,2013-05-18 20:50:00,
2013-05-18 16:55:00,76.6,58.7,30.03,WSW,252,4.0,14.0,54,0.00,,,0.00,Wunderground v.1.15,2013-05-18 20:55:00,
2013-05-18 17:00:00,76.7,58.8,30.03,South,184,4.0,4.0,54,0.00,,,0.00,Wunderground v.1.15,2013-05-18 21:00:00,
2013-05-18 17:10:00,76.7,59.3,30.02,SW,229,3.0,3.0,55,0.00,,,0.00,Wunderground v.1.15,2013-05-18 21:10:00,
2013-05-18 17:15:00,76.9,59.0,30.02,SW,225,3.0,14.0,54,0.00,,,0.00,Wunderground v.1.15,2013-05-18 21:15:00,
2013-05-18 17:20:00,76.9,59.0,30.02,SSW,203,3.0,3.0,54,0.00,,,0.00,Wunderground v.1.15,2013-05-18 21:20:00,
2013-05-18 17:25:00,76.9,59.5,30.02,SSW,207,3.0,14.0,55,0.00,,,0.00,Wunderground v.1.15,2013-05-18 21:25:00,
2013-05-18 17:30:00,77.0,59.6,30.02,South,176,3.0,14.0,55,0.00,,,0.00,Wunderground v.1.15,2013-05-18 21:30:00,
2013-05-18 17:35:00,77.0,60.1,30.02,WSW,254,3.0,14.0,56,0.00,,,0.00,Wunderground v.1.15,2013-05-18 21:35:00,
2013-05-18 17:40:00,77.2,59.3,30.02,South,187,3.0,14.0,54,0.00,,,0.00,Wunderground v.1.15,2013-05-18 21:40:00,
2013-05-18 17:45:00,77.4,59.5,30.02,SSW,212,3.0,14.0,54,0.00,,,0.00,Wunderground v.1.15,2013-05-18 21:45:00,
2013-05-18 17:55:00,77.3,59.4,30.02,WSW,239,4.0,14.0,54,0.00,,,0.00,Wunderground v.1.15,2013-05-18 21:55:00,
2013-05-18 18:00:00,77.5,59.5,30.02,SW,214,4.0,4.0,54,0.00,,,0.00,Wunderground v.1.15,2013-05-18 22:00:00,
2013-05-18 18:10:00,77.2,59.3,30.02,WSW,240,5.0,6.0,54,0.00,,,0.00,Wunderground v.1.15,2013-05-18 22:10:00,
2013-05-18 18:15:00,77.1,59.2,30.02,SW,228,4.0,6.0,54,0.00,,,0.00,Wunderground v.1.15,2013-05-18 22:15:00,
2013-05-18 18:20:00,77.1,59.2,30.01,WSW,250,3.0,6.0,54,0.00,,,0.00,Wunderground v.1.15,2013-05-18 22:20:00,
2013-05-18 18:30:00,77.2,58.7,30.01,WSW,248,5.0,5.0,53,0.00,,,0.00,Wunderground v.1.15,2013-05-18 22:30:00,
2013-05-18 18:35:00,77.1,58.6,30.01,WSW,249,5.0,7.0,53,0.00,,,0.00,Wunderground v.1.15,2013-05-18 22:35:00,
2013-05-18 18:40:00,77.1,59.7,30.01,South,190,5.0,5.0,55,0.00,,,0.00,Wunderground v.1.15,2013-05-18 22:40:00,
2013-05-18 18:45:00,77.3,59.4,30.01,SSE,163,3.0,7.0,54,0.00,,,0.00,Wunderground v.1.15,2013-05-18 22:45:00,
2013-05-18 18:50:00,77.3,59.9,30.01,SW,217,2.0,2.0,55,0.00,,,0.00,Wunderground v.1.15,2013-05-18 22:50:00,
2013-05-18 19:00:00,77.7,59.7,30.01,SW,233,2.0,7.0,54,0.00,,,0.00,Wunderground v.1.15,2013-05-18 23:00:00,
2013-05-18 19:05:00,77.7,59.2,30.01,WSW,242,3.0,7.0,53,0.00,,,0.00,Wunderground v.1.15,2013-05-18 23:05:00,
2013-05-18 19:15:00,77.8,59.3,30.01,WSW,246,4.0,6.0,53,0.00,,,0.00,Wunderground v.1.15,2013-05-18 23:15:00,
2013-05-18 19:20:00,77.9,59.4,30.01,WSW,240,3.0,3.0,53,0.00,,,0.00,Wunderground v.1.15,2013-05-18 23:20:00,
2013-05-18 19:25:00,78.1,59.6,30.00,WSW,239,3.0,5.0,53,0.00,,,0.00,Wunderground v.1.15,2013-05-18 23:25:00,
2013-05-18 19:35:00,77.9,59.9,30.00,SSW,206,3.0,7.0,54,0.00,,,0.00,Wunderground v.1.15,2013-05-18 23:35:00,
2013-05-18 19:40:00,77.7,59.7,30.00,SW,233,2.0,7.0,54,0.00,,,0.00,Wunderground v.1.15,2013-05-18 23:40:00,
2013-05-18 19:45:00,77.5,59.5,30.00,WSW,242,3.0,7.0,54,0.00,,,0.00,Wunderground v.1.15,2013-05-18 23:45:00,
2013-05-18 19:50:00,77.5,59.5,30.00,WSW,248,2.0,7.0,54,0.00,,,0.00,Wunderground v.1.15,2013-05-18 23:50:00,
2013-05-18 19:55:00,77.4,59.5,30.00,South,186,3.0,7.0,54,0.00,,,0.00,Wunderground v.1.15,2013-05-18 23:55:00,
2013-05-18 20:00:00,77.2,59.3,30.00,SW,221,3.0,3.0,54,0.00,,,0.00,Wunderground v.1.15,2013-05-19 00:00:00,
2013-05-18 20:10:00,77.0,59.6,30.00,SW,234,3.0,4.0,55,0.00,,,0.00,Wunderground v.1.15,2013-05-19 00:10:00,
2013-05-18 20:15:00,76.9,59.5,30.00,SW,229,2.0,4.0,55,0.00,,,0.00,Wunderground v.1.15,2013-05-19 00:15:00,
2013-05-18 20:20:00,76.7,59.8,30.00,SW,229,2.0,2.0,56,0.00,,,0.00,Wunderground v.1.15,2013-05-19 00:20:00,
2013-05-18 20:30:00,76.4,59.5,30.00,SW,229,1.0,1.0,56,0.00,,,0.00,Wunderground v.1.15,2013-05-19 00:30:00,
2013-05-18 20:35:00,76.2,59.9,30.00,SW,229,1.0,9.0,57,0.00,,,0.00,Wunderground v.1.15,2013-05-19 00:35:00,
2013-05-18 20:40:00,76.0,60.2,30.00,SW,229,0.0,9.0,58,0.00,,,0.00,Wunderground v.1.15,2013-05-19 00:40:00,
2013-05-18 20:45:00,75.7,59.9,30.00,SW,229,0.0,9.0,58,0.00,,,0.00,Wunderground v.1.15,2013-05-19 00:45:00,
2013-05-18 20:50:00,75.5,60.2,30.00,SW,229,1.0,1.0,59,0.00,,,0.00,Wunderground v.1.15,2013-05-19 00:50:00,
2013-05-18 21:00:00,74.9,60.1,30.00,SW,229,1.0,1.0,60,0.00,,,0.00,Wunderground v.1.15,2013-05-19 01:00:00,
2013-05-18 21:05:00,74.4,60.1,30.00,SW,229,0.0,9.0,61,0.00,,,0.00,Wunderground v.1.15,2013-05-19 01:05:00,
2013-05-18 21:15:00,73.8,60.0,30.00,SE,129,1.0,9.0,62,0.00,,,0.00,Wunderground v.1.15,2013-05-19 01:15:00,
2013-05-18 21:20:00,73.7,59.9,30.00,SE,142,1.0,9.0,62,0.00,,,0.00,Wunderground v.1.15,2013-05-19 01:20:00,
2013-05-18 21:25:00,73.7,59.9,30.01,SE,142,2.0,9.0,62,0.00,,,0.00,Wunderground v.1.15,2013-05-19 01:25:00,
2013-05-18 21:30:00,73.5,59.7,30.00,SE,142,1.0,9.0,62,0.00,,,0.00,Wunderground v.1.15,2013-05-19 01:30:00,
2013-05-18 21:40:00,73.2,59.8,30.01,SE,142,1.0,9.0,63,0.00,,,0.00,Wunderground v.1.15,2013-05-19 01:40:00,
2013-05-18 21:45:00,72.9,59.6,30.01,SE,143,1.0,9.0,63,0.00,,,0.00,Wunderground v.1.15,2013-05-19 01:45:00,
2013-05-18 21:50:00,72.8,59.9,30.01,SE,142,1.0,9.0,64,0.00,,,0.00,Wunderground v.1.15,2013-05-19 01:50:00,
2013-05-18 21:55:00,72.6,59.7,30.01,SE,143,1.0,9.0,64,0.00,,,0.00,Wunderground v.1.15,2013-05-19 01:55:00,
2013-05-18 22:00:00,72.4,59.5,30.01,SE,143,1.0,1.0,64,0.00,,,0.00,Wunderground v.1.15,2013-05-19 02:00:00,
2013-05-18 22:10:00,72.0,59.6,30.01,SE,143,1.0,2.0,65,0.00,,,0.00,Wunderground v.1.15,2013-05-19 02:10:00,
2013-05-18 22:15:00,71.8,59.4,30.01,SE,142,1.0,2.0,65,0.00,,,0.00,Wunderground v.1.15,2013-05-19 02:15:00,
2013-05-18 22:25:00,71.6,59.2,30.01,South,181,1.0,1.0,65,0.00,,,0.00,Wunderground v.1.15,2013-05-19 02:25:00,
2013-05-18 22:35:00,71.2,58.8,30.01,SSW,206,1.0,3.0,65,0.00,,,0.00,Wunderground v.1.15,2013-05-19 02:35:00,
2013-05-18 22:40:00,71.2,58.8,30.01,SSW,200,1.0,4.0,65,0.00,,,0.00,Wunderground v.1.15,2013-05-19 02:40:00,
2013-05-18 22:45:00,71.2,58.8,30.02,SSW,195,2.0,4.0,65,0.00,,,0.00,Wunderground v.1.15,2013-05-19 02:45:00,
2013-05-18 22:50:00,71.1,58.7,30.02,SSE,150,2.0,2.0,65,0.00,,,0.00,Wunderground v.1.15,2013-05-19 02:50:00,
2013-05-18 22:55:00,71.0,58.6,30.02,SW,214,2.0,6.0,65,0.00,,,0.00,Wunderground v.1.15,2013-05-19 02:55:00,
2013-05-18 23:00:00,70.9,59.0,30.02,South,191,2.0,3.0,66,0.00,,,0.00,Wunderground v.1.15,2013-05-19 03:00:00,
2013-05-18 23:05:00,70.8,58.9,30.02,SSW,200,3.0,3.0,66,0.00,,,0.00,Wunderground v.1.15,2013-05-19 03:05:00,
2013-05-18 23:10:00,70.6,58.7,30.02,SSE,155,3.0,3.0,66,0.00,,,0.00,Wunderground v.1.15,2013-05-19 03:10:00,
2013-05-18 23:15:00,70.3,58.8,30.02,SSW,193,2.0,3.0,67,0.00,,,0.00,Wunderground v.1.15,2013-05-19 03:15:00,
2013-05-18 23:20:00,70.3,58.8,30.02,SW,233,3.0,5.0,67,0.00,,,0.00,Wunderground v.1.15,2013-05-19 03:20:00,
2013-05-18 23:30:00,70.2,58.7,30.02,SSW,212,3.0,5.0,67,0.00,,,0.00,Wunderground v.1.15,2013-05-19 03:30:00,
2013-05-18 23:35:00,70.1,58.6,30.02,SW,218,3.0,5.0,67,0.00,,,0.00,Wunderground v.1.15,2013-05-19 03:35:00,
2013-05-18 23:40:00,70.0,58.5,30.02,SSW,200,3.0,3.0,67,0.00,,,0.00,Wunderground v.1.15,2013-05-19 03:40:00,
2013-05-18 23:45:00,69.8,58.3,30.02,SSW,212,2.0,4.0,67,0.00,,,0.00,Wunderground v.1.15,2013-05-19 03:45:00,
2013-05-18 23:50:00,69.6,58.6,30.02,East,97,2.0,3.0,68,0.00,,,0.00,Wunderground v.1.15,2013-05-19 03:50:00,
2013-05-18 23:55:00,69.5,58.5,30.02,East,97,2.0,3.0,68,0.00,,,0.00,Wunderground v.1.15,2013-05-19 03:55:00,